Showing default

YAOGAN-43 02D, 60948

Orbit data source: Space-Track

YAOGAN-43 02D, 60948 is a payload satellite owned by PLA GAD (CN) in LEO that was launched on Tue, 03 Sep 2024 UTC via a CHANG ZHENG 4B launch vehicle from the Xichang Space Center, China (XSC). Payload-class satellites include a variety of spacecraft equipped with specific instruments for various scientific and technological missions. These include communications satellites like Starlink; space stations such as the ISS; scientific satellites like the Hubble; Earth observation satellites from companies like Planet Labs, Umbra, and HawkEye 360; GPS; miniature CubeSats for education and research; and military/defense satellites.

Loading next visibility...
Identifier
60948, 2024-156D
Orbit
LEO
Last TLE update
18 hours ago
Origin
Manufacturer
SAST
Mission
Operational Defense Communications
Bus & Motor
Unknown
Mass
~300 kg wet, ~300 kg dry
Launch date (UTC)
2024-09-03 (8 months ago)
Launch vehicle
CHANG ZHENG 4B
Launch site
Xichang Space Center, China (XSC)
Object type
Payload
Rocket body
Debris
Shape & HBR
Box + 2 Pan, 5 m
Radar Cross Section
11.063 m², Large (>1 m²)

Expand to show TLE details & history

TLE from 18 hours ago
0 YAOGAN-43 02D
1 60948U 24156D   25128.66795482  .00008357  13722-7  34808-3 0  9991
2 60948  34.9929 222.1619 0001275 215.2160 144.8470 15.22774588 29974
Epoch: 2025-05-08T16:01Z
Definitive object data (Epoch: 2025-05-08T16:01:51.296Z)
Latitude
-0.00004°
Longitude
114.96296°
Altitude
497.099 km
Speed
7.618 km/s
True Right ascension
14h 48m 38s
True Declination
0° 00' 00"
Sunlit
Object was in full shadow at TLE epoch
Visualization TLE readout
Latitude
34.73631°
Longitude
-169.58959°
Altitude
498.651 km
Speed
7.62 km/s
Apparent Right ascension
23h 50m 24s
Apparent Declination
-3° 30' 59"
Sunlit
Object is in daylight
Visualization observer readout
Local Sidereal Time
17:51:09
Azimuth
92.82° ESE
Elevation
-2.11°
Doppler factor
1
Orbital elements
Apogee altitude
501.604 km
Perigee altitude
499.85 km
Semi-major axis
6,878.864 km
Eccentricity
0.0001275
Inclination
34.9929°
RAAN
222.1619°
Arg. of periapsis
215.216°
True anomaly
144.85541°
Mean anomaly
144.847°
Eccentric anomaly
144.85121°
Mean motion
3.80424 °/min
BSTAR
0.00034808
Orbital period
94.63 mins
Loading maneuver chart data...
Loading SW <> Apogee altitude chart data...
Loading historical data...
Loading historical data...
Loading historical data...
Loading historical data...
Loading historical data...
Loading historical data...
Loading historical data...

YAOGAN-43 02D Visibility forecast

Observer location: undefined°, undefined°

Span
Click to sort rows by Start time (UTC) header in descending order
Start Az.
Max El. time (UTC)
Max El. Az.
Max El.
End time (UTC)
End Az.
6 mins2025-05-09 11:11:47.792Z234.676° WSW2025-05-09 11:14:47.792Z182.766° SSW28.366°2025-05-09 11:17:47.792Z111.799° ESE
5 mins2025-05-09 12:52:47.792Z237.813° WSW2025-05-09 12:54:47.792Z179.784° S30.869°2025-05-09 12:57:47.792Z120.352° SE
4 mins2025-05-09 14:32:47.792Z225.69° WSW2025-05-09 14:33:47.792Z205.345° SW18.575°2025-05-09 14:36:47.792Z153.346° SSE
|